Погода в Майдане

Россия / Республика Марий Эл     56°16′43″N   46°13′33″E
В апреле 2022 года жителям России запретили посещать сайт meteo.paraplan.net по решению Генеральной прокуратуры. Аудитория сайта уменьшилась в 10 раз. Владельцы сайта не видят смысла в поддержке погодного сервера в таких условиях. Сайт будет закрыт в октябре.
темп.,
°C
ветер,
м/с
пор.,
м/с
влажн.,
%
обл.,
%
осадки,
мм/ч
давл.,
гПа
погр.,
м
30 сентября, пт
пт3000:00+9всв119692 0.1 101735
03:00+9ссв129699 0.1 101981
06:00+9вюв229545 0.0 102053
09:00+11юв348563 0.0 1021432
12:00+14юв3473100 0.0 1021797
15:00+15юв457197 0.0 1022851
18:00+11юв4985100 0.0 1022218
21:00+11юв51087100 0.0 1022353
1 октября, сб
сб100:00+9юв499459 0.0 1022247
03:00+9ююв399635 0.0 1022197
06:00+10ююв3991100 0.0 1021250
09:00+12ююв4987100 0.0 1021354
12:00+15ю51078100 0.0 1019621
15:00+13ююв51190100 1.4 1018458
18:00+14ююв41189100 0.4 1017424
21:00+13ю51390100 0.6 1015505
2 октября, вс
вс200:00+14ююв6148790 0.6 1013566
03:00+14ю61487100 1.3 1011551
06:00+13ю61489100 0.3 1010515
09:00+15ю61486100 0.5 1009712
12:00+15юз61081100 0.1 1009914
15:00+17юз51070100 0.1 10091313
18:00+14юз3878100 0.0 1010327
21:00+12ююз228583 0.0 101051
3 октября, пн
пн300:00+11ююв1191100 0.0 101010
03:00+11вюв249397 0.0 101069
06:00+13юв3996100 0.1 1009252
09:00+17ююв51384100 0.6 1009570
12:00+19ююв61461100 0.0 1009880
15:00+18ю71557100 0.0 10091003
18:00+17ю81654100 0.0 10101107
21:00+17ююв81753100 0.2 10111241
4 октября, вт
вт400:00+16ю81652100 0.1 10121337
03:00+13ю81669100 0.3 10141131
06:00+11ююв71488100 1.4 1015835
09:00+11ю71479100 3.4 1017762
12:00+10ю61276100 0.1 1018736
15:00+10ю51081100 0.5 1019582
18:00+10ю51190100 0.0 1021452
21:00+9ююв41191100 0.0 1022356